RYR22XB EGCC-LEMG

Flight info

Callsign RYR22XB
Flight time N/A
Altitude 36000
Route KUXEM P17 BEPHE DCT OSSEP DCT ELNIF DCT ZESPE DCT KLAKI DCT SALCO DCT NOVAN DCT DELOG DCT CRISA N864 VULPE
Aircraft B738/M-SDE3FGILRWY/SB1

Departure

Time 2026-05-07 13:18
Airport Manchester Airport (EGCC)

Arrival

Time N/A
Airport Málaga-Costa del Sol Airport (LEMG)
Time Latitude Longitude Altitude Speed Heading
2026-05-07 12:59 53.35924 -2.26985 247 ft 0 kts 275°
2026-05-07 13:02 53.35923 -2.26964 247 ft 4 kts 275°
2026-05-07 13:03 53.35921 -2.26919 247 ft 5 kts 275°
2026-05-07 13:03 53.35919 -2.26882 249 ft 4 kts 274°
2026-05-07 13:03 53.35923 -2.26845 250 ft 5 kts 214°
2026-05-07 13:03 53.35943 -2.26841 248 ft 4 kts 166°
2026-05-07 13:04 53.35962 -2.26849 247 ft 0 kts 166°
2026-05-07 13:10 53.35959 -2.26848 247 ft 1 kts 166°
2026-05-07 13:10 53.35941 -2.26833 249 ft 3 kts 145°
2026-05-07 13:10 53.35929 -2.26805 251 ft 3 kts 116°
2026-05-07 13:11 53.35922 -2.26772 253 ft 3 kts 108°
2026-05-07 13:11 53.35921 -2.26764 254 ft 0 kts 108°
2026-05-07 13:11 53.35920 -2.26761 254 ft 1 kts 108°
2026-05-07 13:11 53.35915 -2.26740 255 ft 3 kts 116°
2026-05-07 13:12 53.35900 -2.26711 258 ft 4 kts 144°
2026-05-07 13:12 53.35864 -2.26692 262 ft 8 kts 169°
2026-05-07 13:12 53.35788 -2.26670 264 ft 14 kts 170°
2026-05-07 13:12 53.35683 -2.26640 266 ft 16 kts 169°
2026-05-07 13:13 53.35592 -2.26627 264 ft 13 kts 192°
2026-05-07 13:13 53.35519 -2.26730 261 ft 14 kts 231°
2026-05-07 13:13 53.35458 -2.26856 259 ft 14 kts 231°
2026-05-07 13:13 53.35396 -2.26985 256 ft 15 kts 231°
2026-05-07 13:14 53.35336 -2.27109 255 ft 11 kts 231°
2026-05-07 13:14 53.35291 -2.27192 252 ft 9 kts 218°
2026-05-07 13:14 53.35232 -2.27222 246 ft 10 kts 191°
2026-05-07 13:14 53.35165 -2.27245 243 ft 8 kts 191°
2026-05-07 13:15 53.35153 -2.27249 242 ft 0 kts 191°
2026-05-07 13:15 53.35152 -2.27249 242 ft 1 kts 191°
2026-05-07 13:15 53.35117 -2.27261 241 ft 9 kts 191°
2026-05-07 13:16 53.35032 -2.27293 238 ft 14 kts 204°
2026-05-07 13:16 53.34991 -2.27358 238 ft 0 kts 231°
2026-05-07 13:17 53.34978 -2.27384 238 ft 9 kts 231°
2026-05-07 13:17 53.34830 -2.27689 237 ft 70 kts 231°
2026-05-07 13:17 53.34371 -2.28639 213 ft 138 kts 231°
2026-05-07 13:17 53.33663 -2.30109 378 ft 176 kts 230°
2026-05-07 13:18 53.32882 -2.31737 1072 ft 188 kts 230°
2026-05-07 13:18 53.32069 -2.33607 1592 ft 206 kts 244°
2026-05-07 13:18 53.31844 -2.36015 2077 ft 219 kts 269°
2026-05-07 13:18 53.32066 -2.38621 2422 ft 235 kts 279°
2026-05-07 13:19 53.32419 -2.41401 2683 ft 254 kts 278°
2026-05-07 13:19 53.32436 -2.44379 3286 ft 258 kts 254°
2026-05-07 13:19 53.31902 -2.47213 4193 ft 256 kts 250°
2026-05-07 13:19 53.31362 -2.50090 4840 ft 261 kts 251°
2026-05-07 13:20 53.31005 -2.52029 5026 ft 264 kts 251°
2026-05-07 13:20 53.30276 -2.55947 6127 ft 265 kts 251°
2026-05-07 13:20 53.29730 -2.58895 6947 ft 266 kts 249°
2026-05-07 13:20 53.29257 -2.60836 7434 ft 269 kts 244°
2026-05-07 13:21 53.28434 -2.63624 8167 ft 271 kts 238°
2026-05-07 13:21 53.27158 -2.65917 8906 ft 272 kts 216°
2026-05-07 13:21 53.25593 -2.67731 9610 ft 275 kts 214°
2026-05-07 13:21 53.23999 -2.69536 10326 ft 279 kts 214°
2026-05-07 13:22 53.22338 -2.71431 10552 ft 301 kts 214°
2026-05-07 13:22 53.20547 -2.73485 10756 ft 321 kts 214°
2026-05-07 13:22 53.18676 -2.75643 11267 ft 330 kts 214°
2026-05-07 13:22 53.16798 -2.77813 11931 ft 333 kts 214°
2026-05-07 13:23 53.14886 -2.80020 12651 ft 335 kts 214°
2026-05-07 13:23 53.12954 -2.82247 13322 ft 339 kts 214°
2026-05-07 13:23 53.11003 -2.84488 14015 ft 343 kts 214°
2026-05-07 13:23 53.08960 -2.86584 14708 ft 346 kts 203°
2026-05-07 13:24 53.06626 -2.87611 15418 ft 350 kts 187°
2026-05-07 13:24 53.04170 -2.87514 16048 ft 356 kts 173°
2026-05-07 13:24 53.01743 -2.86861 16707 ft 359 kts 171°
2026-05-07 13:24 52.99266 -2.86132 17357 ft 363 kts 171°
2026-05-07 13:25 52.96758 -2.85395 17970 ft 366 kts 171°
2026-05-07 13:25 52.94236 -2.84677 18580 ft 370 kts 171°
2026-05-07 13:25 52.91682 -2.83971 19177 ft 373 kts 172°
2026-05-07 13:25 52.89099 -2.83273 19776 ft 376 kts 172°
2026-05-07 13:26 52.86536 -2.82589 20349 ft 379 kts 172°
2026-05-07 13:26 52.83920 -2.81891 20904 ft 382 kts 171°
2026-05-07 13:26 52.81281 -2.81186 21452 ft 385 kts 171°
2026-05-07 13:26 52.78618 -2.80472 21991 ft 388 kts 171°
2026-05-07 13:27 52.75930 -2.79735 22470 ft 392 kts 171°
2026-05-07 13:27 52.73266 -2.78998 22982 ft 394 kts 171°
2026-05-07 13:27 52.70547 -2.78249 23468 ft 397 kts 171°
2026-05-07 13:27 52.67809 -2.77518 23925 ft 400 kts 171°
2026-05-07 13:28 52.65046 -2.76794 24380 ft 403 kts 171°
2026-05-07 13:28 52.62265 -2.76079 24823 ft 405 kts 173°
2026-05-07 13:28 52.59437 -2.75806 25216 ft 409 kts 182°
2026-05-07 13:28 52.56624 -2.76101 25654 ft 410 kts 184°
2026-05-07 13:29 52.53766 -2.76417 26042 ft 413 kts 183°
2026-05-07 13:29 52.50872 -2.76696 26404 ft 417 kts 182°
2026-05-07 13:29 52.47970 -2.76953 26777 ft 420 kts 182°
2026-05-07 13:29 52.45042 -2.77206 27178 ft 421 kts 182°
2026-05-07 13:30 52.42106 -2.77452 27549 ft 423 kts 182°
2026-05-07 13:30 52.39188 -2.77697 27881 ft 426 kts 182°
2026-05-07 13:30 52.36216 -2.77948 28207 ft 428 kts 182°
2026-05-07 13:30 52.33224 -2.78203 28528 ft 431 kts 182°
2026-05-07 13:31 52.30221 -2.78461 28838 ft 433 kts 182°
2026-05-07 13:31 52.27199 -2.78721 29147 ft 436 kts 182°
2026-05-07 13:31 52.24160 -2.78983 29445 ft 438 kts 182°
2026-05-07 13:31 52.21096 -2.79247 29730 ft 440 kts 181°
2026-05-07 13:32 52.18030 -2.79511 30042 ft 441 kts 181°
2026-05-07 13:32 52.15006 -2.79773 30423 ft 440 kts 181°
2026-05-07 13:32 52.11955 -2.80037 30870 ft 437 kts 181°
2026-05-07 13:32 52.08920 -2.80298 31280 ft 436 kts 181°
2026-05-07 13:33 52.05887 -2.80554 31597 ft 436 kts 181°
2026-05-07 13:33 52.02849 -2.80813 31892 ft 437 kts 181°
2026-05-07 13:33 51.99816 -2.81068 32253 ft 436 kts 181°
2026-05-07 13:33 51.96794 -2.81323 32622 ft 434 kts 182°
2026-05-07 13:34 51.93774 -2.81582 32926 ft 434 kts 182°
2026-05-07 13:34 51.87783 -2.82095 33593 ft 432 kts 182°
2026-05-07 13:34 51.84775 -2.82391 33855 ft 433 kts 185°
2026-05-07 13:35 51.81776 -2.82941 34146 ft 432 kts 186°
2026-05-07 13:35 51.78803 -2.83592 34445 ft 431 kts 187°
2026-05-07 13:35 51.75823 -2.84270 34697 ft 432 kts 187°
2026-05-07 13:35 51.72842 -2.84940 34920 ft 432 kts 187°
2026-05-07 13:36 51.69858 -2.85594 35171 ft 432 kts 187°
2026-05-07 13:36 51.66873 -2.86236 35442 ft 431 kts 187°
2026-05-07 13:36 51.63939 -2.86861 35718 ft 431 kts 187°
2026-05-07 13:36 51.60951 -2.87494 35936 ft 431 kts 187°
2026-05-07 13:37 51.57963 -2.88125 36040 ft 434 kts 187°
2026-05-07 13:37 51.51969 -2.89388 36048 ft 437 kts 187°
2026-05-07 13:38 51.45960 -2.90648 36034 ft 431 kts 187°
2026-05-07 13:38 51.40059 -2.91886 36057 ft 428 kts 187°
2026-05-07 13:39 51.34137 -2.93132 36046 ft 428 kts 187°
2026-05-07 13:39 51.28218 -2.94381 36047 ft 428 kts 187°
2026-05-07 13:40 51.22335 -2.95619 36046 ft 429 kts 187°
2026-05-07 13:40 51.16402 -2.96863 36042 ft 429 kts 187°
2026-05-07 13:41 51.10468 -2.98103 36040 ft 430 kts 187°
2026-05-07 13:41 51.04559 -2.99333 36044 ft 430 kts 187°
2026-05-07 13:42 50.98594 -3.00572 36045 ft 431 kts 188°
2026-05-07 13:42 50.92644 -3.01806 36047 ft 431 kts 188°
2026-05-07 13:43 50.86723 -3.03030 36047 ft 431 kts 188°
2026-05-07 13:43 50.80757 -3.04260 36033 ft 432 kts 188°
2026-05-07 13:44 50.74823 -3.05483 36038 ft 432 kts 188°
2026-05-07 13:44 50.68859 -3.06707 36039 ft 431 kts 188°
2026-05-07 13:45 50.62908 -3.07928 36039 ft 430 kts 188°
2026-05-07 13:45 50.57000 -3.09134 36042 ft 430 kts 188°
2026-05-07 13:46 50.51076 -3.10345 36043 ft 429 kts 188°
2026-05-07 13:46 50.45154 -3.11555 36036 ft 428 kts 188°
2026-05-07 13:47 50.39247 -3.12753 36037 ft 428 kts 188°
2026-05-07 13:47 50.33558 -3.15266 36060 ft 425 kts 202°
2026-05-07 13:48 50.28087 -3.18811 36054 ft 425 kts 203°
2026-05-07 13:48 50.22654 -3.22310 36044 ft 424 kts 202°
2026-05-07 13:49 50.17171 -3.25792 36036 ft 425 kts 202°
2026-05-07 13:49 50.11679 -3.29255 36033 ft 425 kts 202°
2026-05-07 13:50 50.06227 -3.32684 36029 ft 425 kts 202°
2026-05-07 13:50 50.00722 -3.36138 36029 ft 426 kts 202°
2026-05-07 13:51 49.95222 -3.39582 36029 ft 426 kts 202°
2026-05-07 13:51 49.89716 -3.43024 36025 ft 426 kts 202°
2026-05-07 13:52 49.84251 -3.46434 36028 ft 425 kts 202°
2026-05-07 13:52 49.78746 -3.49858 36023 ft 425 kts 202°
2026-05-07 13:53 49.73143 -3.52799 36017 ft 426 kts 192°
2026-05-07 13:53 49.67209 -3.53472 36016 ft 428 kts 183°
2026-05-07 13:54 49.61280 -3.53693 36007 ft 428 kts 182°
2026-05-07 13:54 49.55309 -3.53946 36000 ft 428 kts 183°
2026-05-07 13:55 49.49385 -3.54238 35997 ft 427 kts 183°
2026-05-07 13:55 49.43447 -3.54545 36003 ft 427 kts 183°
2026-05-07 13:56 49.37501 -3.54857 36001 ft 426 kts 183°
2026-05-07 13:56 49.31603 -3.55166 36003 ft 426 kts 183°
2026-05-07 13:57 49.25657 -3.55474 36001 ft 426 kts 183°
2026-05-07 13:57 49.19716 -3.55782 35998 ft 426 kts 183°
2026-05-07 13:58 49.13777 -3.56089 35991 ft 427 kts 183°
2026-05-07 13:58 49.07842 -3.56395 35989 ft 427 kts 183°
2026-05-07 13:59 49.01931 -3.56698 35990 ft 427 kts 183°
2026-05-07 13:59 48.95988 -3.57005 35992 ft 427 kts 183°
2026-05-07 14:00 48.90082 -3.57309 35990 ft 426 kts 183°
2026-05-07 14:00 48.84135 -3.57611 35990 ft 426 kts 183°
2026-05-07 14:01 48.78201 -3.57913 35988 ft 426 kts 183°
2026-05-07 14:01 48.72305 -3.58215 35993 ft 426 kts 183°
2026-05-07 14:02 48.66363 -3.58519 35993 ft 426 kts 183°
2026-05-07 14:02 48.60436 -3.58816 35985 ft 426 kts 183°
2026-05-07 14:03 48.54535 -3.59114 35977 ft 426 kts 183°
2026-05-07 14:03 48.48610 -3.59413 35983 ft 425 kts 183°
2026-05-07 14:04 48.42683 -3.59708 35982 ft 425 kts 183°
2026-05-07 14:04 48.36766 -3.60005 35978 ft 425 kts 183°
2026-05-07 14:05 48.30879 -3.60299 35981 ft 425 kts 183°
2026-05-07 14:05 48.24958 -3.60597 35992 ft 425 kts 183°
2026-05-07 14:06 48.19043 -3.60890 35988 ft 425 kts 183°
2026-05-07 14:06 48.13167 -3.61184 35995 ft 424 kts 183°
2026-05-07 14:07 48.07256 -3.61478 35998 ft 424 kts 183°
2026-05-07 14:07 48.02338 -3.61721 35997 ft 424 kts 183°
2026-05-07 14:08 47.95475 -3.62059 36009 ft 424 kts 183°
2026-05-07 14:08 47.90555 -3.62301 36011 ft 424 kts 183°
2026-05-07 14:09 47.84649 -3.62592 36020 ft 424 kts 183°
2026-05-07 14:09 47.78779 -3.62880 36018 ft 424 kts 183°
2026-05-07 14:10 47.72876 -3.63167 36018 ft 424 kts 183°
2026-05-07 14:10 47.66969 -3.63456 36018 ft 424 kts 183°
2026-05-07 14:11 47.61049 -3.63747 36018 ft 424 kts 183°
2026-05-07 14:11 47.55185 -3.64028 36019 ft 424 kts 183°
2026-05-07 14:12 47.49284 -3.64316 36018 ft 424 kts 183°
2026-05-07 14:12 47.43380 -3.64603 36017 ft 424 kts 183°
2026-05-07 14:13 47.37505 -3.64885 35996 ft 424 kts 183°
2026-05-07 14:13 47.31592 -3.65171 36001 ft 424 kts 183°
2026-05-07 14:14 47.25674 -3.65456 35997 ft 424 kts 183°
2026-05-07 14:14 47.19802 -3.65739 35985 ft 424 kts 183°
2026-05-07 14:15 47.13905 -3.66021 35985 ft 423 kts 183°
2026-05-07 14:15 47.08006 -3.66303 35989 ft 423 kts 183°
2026-05-07 14:16 47.02152 -3.66580 35990 ft 422 kts 183°
2026-05-07 14:16 46.96284 -3.66860 35992 ft 421 kts 183°
2026-05-07 14:17 46.90416 -3.67138 35987 ft 421 kts 183°
2026-05-07 14:17 46.84597 -3.67415 35994 ft 420 kts 183°
2026-05-07 14:18 46.78738 -3.67693 35992 ft 420 kts 183°
2026-05-07 14:18 46.72882 -3.67969 35999 ft 420 kts 183°
2026-05-07 14:19 46.67063 -3.68243 35990 ft 420 kts 183°
2026-05-07 14:19 46.61213 -3.68519 35998 ft 419 kts 183°